Location: Unspecified
(0.0000°N, 0.0000°E)
Time: 17:41:02
(UTC+00:00)

SRMSAT - Pass Details

Date: 21 July 2019
Orbit: 848 x 865 km, 20.0° (Epoch: 07 December)

Event Time Altitude Azimuth Distance (km) Brightness Sun altitude
Rises 21:15:41 0° 301° (WNW) 3,424 ? -43.5°
Reaches altitude 10° 21:20:17 10° 332° (NNW) 2,483 ? -44.5°
Enters shadow 21:20:39 11° 336° (NNW) 2,445 ? -44.6°
